SL-24 R/B, 40541

Orbit data source: Space-Track

SL-24 R/B, 40541 is space debris in SSO originally from a launch on Wed, 25 Mar 2015 UTC launched from the Orenburg, Russia (OREN). Debris objects in space refer to the collection of defunct objects orbiting the Earth. Examples of debris include non-operational satellites, rocket bodies, and fragments generated from explosions, collisions, or faulty payload assembly.

Loading next visibility...
Identifier
40541, 2015-014C
Orbit
SSO
Country
Flag of CISCIS
Related business
Manufacturer
Yuzhnoe
Mission
Spacecraft
Bus & Motor
15A18-BR, Unknown motor
Mass
~1,000 kg wet, ~1,000 kg dry
Launch date (UTC)
2015-03-25 (11 years ago)
Launch vehicle
Unknown
Launch site
Orenburg, Russia (OREN)
Object type
Payload
Rocket body
Debris
Shape & HBR
Cyl, 1.5 m
Radar Cross Section
10.603 m², Large (>1 m²)

Expand to show TLE details & history
Last TLE update: 1 day ago

TLE from 1 day ago
0 SL-24 R/B
1 40541U 15014C   25338.56920178  .00000612  00000-0  15478-3 0  9991
2 40541  97.3438 190.6167 0612142  72.9782 293.7493 13.77614522536998
Epoch: 2025-12-04T13:39Z
TLE epoch observation values (Epoch: 2025-12-04T13:39:39.033Z)
Latitude
-0.00001°
Longitude
-87.9197°
Altitude
817.925 km
Speed
7.523 km/s
True Right ascension
12h 42m 28s
True Declination
0° 00' 00"
Sunlit
Object was in daylight at epoch
Visualization orbit readout
Latitude
Unknown
Longitude
Unknown
Altitude
Unknown
Speed
Unknown
Apparent Right ascension
Unknown
Apparent Declination
Unknown
Sunlit
N/A
Visualization observer readout
Local Sidereal Time
13:35:35
Azimuth
Unknown
Elevation
Unknown
Doppler factor
Unknown
Orbital elements
Apogee altitude
1,419.28 km
Perigee altitude
519.72 km
Semi-major axis
7,347.637 km
Eccentricity
0.06121
Inclination
97.3438°
RAAN
190.6167°
Arg. of periapsis
72.9782°
True anomaly
287.13956°
Mean anomaly
293.7493°
Eccentric anomaly
290.46331°
Mean motion
3.44605 °/min
Orbital period
104.47 mins
BSTAR
0.00015478
Loading maneuver chart data...
Computing Atmospheric mass density...
Loading historical data...
Loading historical data...
Loading historical data...
Loading historical data...
Loading historical data...
Loading historical data...
Loading historical data...
Other satellites on launch #14 in the year 2015 (2015-03-25 UTC)

Documentation

Showing up to 5 results
|